STARLINK-1371 (45542 NORAD) Tracking and Keplerian Element Data

This shows tracking and keplerian element data for the satellite.

Feedback or suggestion? Click here.




ElementValue
Catalog45542
NameSTARLINK-1371
Epoch Orbit579
Epoch Day146.25001157
Epoch Year2020
RAAN240.6834
Inclination52.9974
Eccentricity0.0002868
Argument of Perigee33.0555
Mean Anonmoly349.4926
Mean Motion15.42569999
Decay Rate0.04857843
L11 45542U 20025M 20146.25001157 .04857843 00000-0 94961-1 0 9992
L22 45542 52.9974 240.6834 0002868 33.0555 349.4926 15.42569999 5797

Live tracking and technical data element details for STARLINK-1371 (NORAD 45542). STARLINK-1371 can be tracked NOW for your location showing map with azimuth and elevation plus other details from your city location.

Track the satellite on the map from your city or location and see movement details for azimuth, elevation, latitude, longitude, range, height, and movement on the map or in text.







IsCatalogInMostPopularTable: catalog: 45542, numindb: 5
Update: records affected: 1



GetName: 45542 STARLINK-1371

Hit Count: updated at: Tue, 26 May 2020 02:25:20 GMT